AirNav  
 
 445 users online  

21CL La County Sheriff Lancaster Station Heliport
Lancaster, California, USA

GOING TO LANCASTER?


FAA INFORMATION EFFECTIVE 12 OCTOBER 2017

Location

FAA Identifier: 21CL
Lat/Long: 34-42-01.0400N / 118-08-17.1100W
34-42.017333N / 118-08.285167W
34.7002889 / -118.1380861
(estimated)
Elevation: 2367 ft. / 721 m (estimated)
Variation: 14E (1985)
From city: HELI LCTD 6NM SE OF FOX FIELD.
Time zone: UTC -7 (UTC -8 during Standard Time)
Zip code: 93535

Heliport Operations

Heliport use: Private use. Permission required prior to landing
Activation date: 07/1972
Control tower: no
ARTCC: LOS ANGELES CENTER
FSS: RIVERSIDE FLIGHT SERVICE STATION
Attendance: CONTINUOUS
Wind indicator: yes
Segmented circle: no

Heliport Communications

WX ASOS at WJF (5 nm NW): PHONE 661-949-2840
WX ASOS at PMD (5 nm SE): PHONE 661-272-3798

Nearby radio navigation aids

VOR radial/distance  VOR name  Freq  Var
PMDr303/5.5PALMDALE VORTAC114.5015E
LHSr072/21.7LAKE HUGHES VORTAC108.4015E
EDWr215/26.2EDWARDS VORTAC116.4015E
VNYr016/33.5VAN NUYS VOR/DME113.1015E
GMNr084/36.2GORMAN VORTAC116.1016E
VCVr266/37.5VICTORVILLE VOR/DME109.0514E

 
NDB name  Hdg/Dist  Freq  Var  ID
EL MONTE337/37.135915EEMT . -- -

Heliport Services

Airframe service: NONE
Powerplant service: NONE

Runway Information

Helipad H1

Dimensions: 100 x 95 ft. / 30 x 29 m
Surface: concrete
Latitude: 34-42.017333N
Longitude: 118-08.285167W
Elevation: 2367.0 ft.
Traffic pattern: leftleft

Heliport Ownership and Management from official FAA records

Ownership: Publicly-owned
Owner: LOS ANGELES COUNTY
4700 RAMONA BLVD
MONTEREY PARK, CA 91754-2169
Manager: ROBERT RENTERIA
3235 LAKEWOOD BLVD
LONG BEACH, CA 90808
Phone 562-421-2701

Additional Remarks

A52-H1 MICROWAVE TWR SOUTH 400 FEET LGTD/MKD.

Instrument Procedures

There are no published instrument procedures at 21CL.

Some nearby airports with instrument procedures:

KWJF - General Wm J Fox Airfield (5 nm NW)
KPMD - Palmdale USAF Plant 42 Airport (5 nm SE)
KEDW - Edwards Air Force Base (18 nm NE)
KMHV - Mojave Air and Space Port (22 nm N)
L71 - California City Municipal Airport (28 nm N)
 
Loc | Ops | Rwys | IFR | FBO | Links
Com | Nav | Svcs | Stats | Notes


 
Area around 21CL (La County Sheriff Lancaster Station Heliport)
 
Road maps at: MapQuest Bing Google
 
Aerial photo
No photo
 
Sectional chart

 
Airport distance calculator
Flying to La County Sheriff Lancaster Station Heliport? Find the distance to fly.

From to 21CL

Sunrise and sunset
Times for 21-Oct-2017
 Local
(UTC-7)
 Zulu
(UTC)
Morning civil twilight06:3913:39
Sunrise07:0414:04
Sunset18:1001:10
Evening civil twilight18:3601:36

Current date and time
Zulu (UTC)  21-Oct-2017 11:11:30
Local (UTC-7)  21-Oct-2017 04:11:30
 
METAR
KWJF 
4nm W 
211056Z AUTO 27014KT 10SM CLR 09/02 A3006 RMK AO2 SLP179 T00940017 $
KPMD 
5nm SE 
211053Z AUTO 29017G26KT 10SM CLR 09/03 A3007 RMK AO2 PK WND 30032/1028 SLP172 T00940028
KEDW 
17nm NE 
211058Z AUTO 18004KT 10SM CLR 09/00 A3003 RMK AO2 SLP163 T00850002
TAF
KWJF 
4nm W 
210539Z 2106/2206 28018G23KT P6SM SKC FM210800 28014KT P6SM SKC FM211100 28010KT P6SM SKC FM211700 35009KT P6SM SKC FM212000 04012KT P6SM SKC FM220500 04005KT P6SM SKC
KPMD 
5nm SE 
210539Z 2106/2206 28017G27KT P6SM SKC FM210700 28014KT P6SM SKC FM210900 29011KT P6SM SKC FM211200 28007KT P6SM SKC FM211700 04007KT P6SM SKC FM212000 04012KT P6SM SKC FM220400 VRB05KT P6SM SKC
KEDW 
17nm NE 
210201Z 2102/2208 25015G25KT 9999 FEW050 SCT250 510009 QNH2985INS TEMPO 2102/2105 27025G35KT 520009 BECMG 2104/2105 28012KT 9999 FEW050 SCT250 QNH2992INS WND 240V320 BECMG 2109/2110 VRB06KT 9999 FEW050 BKN250 QNH3000INS BECMG 2117/2118 05010G15KT 9999 FEW250 QNH3008INS BECMG 2201/2202 VRB06KT 9999 SKC QNH3020INS TX21/2122Z TN01/2112Z LAST NO AMDS AFT 2105 NEXT 2310
NOTAMs
Click for the latest NOTAMs
NOTAMs are issued by the DoD/FAA and will open in a separate window not controlled by AirNav.

 

 
 

Would you like to see your business listed on this page?

 If your business provides an interesting product or service to pilots, flight crews, aircraft, or users of the La County Sheriff Lancaster Station Heliport, you should consider listing it here.  To start the listing process, click on the button below
 
Add a business
 

Other Pages about La County Sheriff Lancaster Station Heliport

Update a link
 
Copyright © AirNav, LLC. All rights reserved. Privacy Policy  Contact